Coldwater, MI

10:31 AM EDT on April 23, 2017 (GMT -0400)
Branch County Memorial

Weather History for KOEB - October, 2014

Change the Weather History Date:

Friday, October 17, 2014

  Actual Average (KJYM) Record (KJYM)
Temperature  
Mean Temperature 56 °F -  
Max Temperature 62 °F 59 °F 84 °F (1950)
Min Temperature 49 °F 38 °F 20 °F (1977)
Degree Days  
Heating Degree Days 9    
Growing Degree Days 6 (Base 50)    
Moisture  
Dew Point 51 °F    
Average Humidity 85    
Maximum Humidity 95    
Minimum Humidity 64    
Precipitation  
Precipitation 0.00 in - - ()
Sea Level Pressure  
Sea Level Pressure 29.62 in    
Wind  
Wind Speed 10 mph (WSW)    
Max Wind Speed 21 mph    
Max Gust Speed 26 mph    
Visibility 9 miles    
Events Rain    
Averages and records for this station are not official NWS values.
T = Trace of Precipitation, MM = Missing Value Source: NWS Daily Summary

Daily Weather History Graph

Daily Weather History Graph

Search for Another Location

Airport or City:

Trip Planner

Search our weather history database for the weather conditions in past years. The results will help you decide how hot, cold, wet, or windy it might be!

Date:

Astronomy

Oct. 17, 2014 Rise Set
Actual Time 7:54 AM EDT 6:55 PM EDT
Civil Twilight 7:26 AM EDT 7:23 PM EDT
Nautical Twilight 6:54 AM EDT 7:56 PM EDT
Astronomical Twilight 6:21 AM EDT 8:28 PM EDT
Moon 1:53 AM EDT (10/17) 3:46 PM EDT (10/17)
Length of Visible Light 11h 56m
Length of Day
11h 00m
Waning Crescent, 33% of the Moon is Illuminated
Oct 17
Waning Crescent
Oct 23
New
Oct 30
First Quarter
Nov 6
Full
Nov 14
Last Quarter

Hourly Weather History & Observations

Time (EDT) Temp. Dew Point Humidity Pressure Visibility Wind Dir Wind Speed Gust Speed Precip Events Conditions
12:14 AM 55.4 °F 51.3 °F 86% 29.72 in 10.0 mi WSW 10.4 mph - N/A   Overcast
12:34 AM 55.4 °F 51.3 °F 86% 29.71 in 10.0 mi SW 9.2 mph - N/A   Overcast
12:54 AM 55.4 °F 51.4 °F 87% 29.70 in 10.0 mi SW 11.5 mph 16.1 mph N/A   Overcast
1:14 AM 55.4 °F 51.8 °F 88% 29.70 in 10.0 mi SW 10.4 mph - N/A   Overcast
1:34 AM 55.4 °F 51.8 °F 88% 29.70 in 10.0 mi WSW 11.5 mph 17.3 mph N/A   Overcast
1:54 AM 55.4 °F 51.8 °F 88% 29.70 in 10.0 mi SW 10.4 mph 16.1 mph N/A   Overcast
2:14 AM 55.4 °F 51.4 °F 87% 29.69 in 10.0 mi WSW 9.2 mph - N/A   Overcast
2:34 AM 55.4 °F 51.4 °F 87% 29.68 in 10.0 mi SW 8.1 mph 17.3 mph N/A   Overcast
2:54 AM 55.4 °F 52.0 °F 88% 29.67 in 10.0 mi SW 9.2 mph - N/A   Overcast
3:15 AM 55.6 °F 52.0 °F 88% 29.66 in 10.0 mi SW 6.9 mph - N/A   Overcast
3:34 AM 55.8 °F 52.2 °F 88% 29.65 in 10.0 mi SW 9.2 mph - N/A   Overcast
3:54 AM 55.6 °F 52.2 °F 88% 29.64 in 10.0 mi SW 8.1 mph - N/A   Overcast
4:15 AM 55.4 °F 52.2 °F 89% 29.64 in 10.0 mi SSW 9.2 mph - N/A   Overcast
4:34 AM 55.4 °F 52.0 °F 88% 29.63 in 10.0 mi SW 13.8 mph 21.9 mph N/A   Overcast
4:54 AM 54.9 °F 51.8 °F 89% 29.62 in 10.0 mi SSW 8.1 mph - N/A   Overcast
5:14 AM 53.8 °F 51.4 °F 92% 29.61 in 10.0 mi SSW 5.8 mph - N/A   Mostly Cloudy
5:34 AM 53.6 °F 51.3 °F 92% 29.60 in 10.0 mi SSW 5.8 mph - N/A   Mostly Cloudy
5:55 AM 53.2 °F 51.3 °F 93% 29.60 in 10.0 mi SSW 4.6 mph - N/A   Mostly Cloudy
6:14 AM 53.6 °F 51.4 °F 92% 29.59 in 7.0 mi SSW 5.8 mph - N/A   Mostly Cloudy
6:34 AM 53.1 °F 51.1 °F 93% 29.60 in 7.0 mi SSW 6.9 mph - N/A   Mostly Cloudy
6:54 AM 53.1 °F 50.9 °F 92% 29.60 in 10.0 mi SW 6.9 mph - N/A   Overcast
7:14 AM 52.7 °F 50.9 °F 94% 29.59 in 7.0 mi SW 6.9 mph - N/A   Overcast
7:34 AM 52.5 °F 50.4 °F 92% 29.59 in 10.0 mi SSW 5.8 mph - N/A   Mostly Cloudy
7:54 AM 53.2 °F 50.9 °F 92% 29.58 in 10.0 mi SSW 6.9 mph - N/A   Overcast
8:14 AM 53.2 °F 50.9 °F 92% 29.58 in 7.0 mi SSW 6.9 mph - N/A   Overcast
8:34 AM 53.6 °F 50.9 °F 91% 29.57 in 10.0 mi SSW 5.8 mph - N/A   Overcast
8:54 AM 53.8 °F 50.9 °F 90% 29.57 in 10.0 mi SSW 8.1 mph - N/A   Overcast
9:14 AM 54.1 °F 51.3 °F 90% 29.57 in 10.0 mi SW 9.2 mph - N/A   Overcast
9:34 AM 54.9 °F 51.6 °F 89% 29.57 in 10.0 mi SW 10.4 mph 16.1 mph N/A   Overcast
9:54 AM 55.0 °F 51.4 °F 88% 29.57 in 10.0 mi SW 12.7 mph 16.1 mph N/A   Overcast
10:14 AM 55.4 °F 51.3 °F 86% 29.58 in 10.0 mi WSW 12.7 mph 18.4 mph N/A   Overcast
10:34 AM 56.1 °F 51.3 °F 84% 29.56 in 10.0 mi SW 12.7 mph 19.6 mph N/A   Overcast
10:54 AM 56.3 °F 51.3 °F 83% 29.56 in 10.0 mi WSW 13.8 mph 19.6 mph N/A   Overcast
11:15 AM 56.3 °F 51.1 °F 83% 29.57 in 10.0 mi WSW 15.0 mph 20.7 mph N/A   Overcast
11:34 AM 58.3 °F 51.6 °F 78% 29.57 in 10.0 mi SW 11.5 mph 16.1 mph N/A   Overcast
11:54 AM 59.4 °F 52.3 °F 78% 29.56 in 10.0 mi WSW 9.2 mph - N/A   Mostly Cloudy
12:15 PM 60.8 °F 52.5 °F 74% 29.56 in 10.0 mi SW 12.7 mph 17.3 mph N/A   Scattered Clouds
12:34 PM 60.8 °F 51.8 °F 72% 29.56 in 10.0 mi WSW 10.4 mph - N/A   Clear
12:54 PM 61.5 °F 52.0 °F 71% 29.56 in 10.0 mi West 9.2 mph - N/A   Clear
1:15 PM 61.9 °F 51.6 °F 69% 29.56 in 10.0 mi WSW 11.5 mph - N/A   Scattered Clouds
1:34 PM 62.1 °F 51.3 °F 68% 29.56 in 10.0 mi WSW 18.4 mph 24.2 mph N/A   Mostly Cloudy
1:54 PM 61.9 °F 51.8 °F 69% 29.56 in 10.0 mi WSW 16.1 mph 21.9 mph N/A   Overcast
2:14 PM 61.7 °F 49.8 °F 65% 29.56 in 10.0 mi West 20.7 mph 25.3 mph N/A   Overcast
2:34 PM 61.7 °F 49.5 °F 64% 29.57 in 10.0 mi West 15.0 mph 23.0 mph N/A   Overcast
2:54 PM 61.7 °F 50.2 °F 66% 29.57 in 10.0 mi West 16.1 mph 21.9 mph N/A   Overcast
3:14 PM 61.2 °F 49.3 °F 65% 29.57 in 10.0 mi West 17.3 mph 26.5 mph N/A   Overcast
3:34 PM 60.4 °F 49.6 °F 68% 29.58 in 10.0 mi West 13.8 mph 19.6 mph N/A   Overcast
3:55 PM 61.0 °F 50.2 °F 68% 29.58 in 10.0 mi WNW 17.3 mph 24.2 mph N/A   Overcast
4:14 PM 60.4 °F 50.0 °F 68% 29.59 in 10.0 mi WNW 13.8 mph 21.9 mph N/A   Overcast
4:34 PM 60.1 °F 49.8 °F 69% 29.59 in 10.0 mi West 15.0 mph 20.7 mph N/A   Overcast
4:55 PM 59.0 °F 49.5 °F 71% 29.61 in 10.0 mi West 12.7 mph 24.2 mph N/A   Overcast
5:14 PM 58.5 °F 49.5 °F 72% 29.62 in 10.0 mi West 11.5 mph 23.0 mph N/A   Overcast
5:34 PM 56.3 °F 51.3 °F 83% 29.63 in 4.0 mi WNW 12.7 mph - N/A Rain Heavy Rain
5:54 PM 55.4 °F 52.9 °F 91% 29.64 in 2.5 mi WNW 8.1 mph - N/A Rain Heavy Rain
6:14 PM 54.9 °F 52.5 °F 92% 29.64 in 5.0 mi West 10.4 mph 16.1 mph N/A Rain Light Rain
6:34 PM 55.0 °F 52.7 °F 92% 29.64 in 5.0 mi West 10.4 mph 16.1 mph N/A Rain Rain
6:54 PM 55.2 °F 52.7 °F 91% 29.64 in 7.0 mi West 8.1 mph - N/A   Drizzle
7:14 PM 54.9 °F 52.7 °F 92% 29.64 in 10.0 mi WSW 9.2 mph - N/A   Overcast
7:34 PM 55.4 °F 52.7 °F 91% 29.65 in 10.0 mi WSW 9.2 mph - N/A   Overcast
7:54 PM 55.4 °F 52.7 °F 91% 29.65 in 10.0 mi WSW 13.8 mph - N/A   Overcast
8:13 PM 55.0 °F 52.7 °F 92% 29.66 in 7.0 mi West 12.7 mph 19.6 mph N/A Rain Light Rain
8:35 PM 54.3 °F 52.3 °F 93% 29.67 in 5.0 mi WNW 11.5 mph 21.9 mph N/A Rain Rain
8:54 PM 53.6 °F 52.2 °F 95% 29.68 in 4.0 mi WNW 12.7 mph - N/A Rain Rain
9:14 PM 53.4 °F 52.0 °F 95% 29.68 in 7.0 mi WNW 15.0 mph 24.2 mph N/A   Drizzle
9:34 PM 53.1 °F 51.4 °F 94% 29.69 in 5.0 mi West 12.7 mph 20.7 mph N/A   Light Drizzle
9:54 PM 52.7 °F 51.1 °F 94% 29.70 in 4.0 mi WNW 13.8 mph 21.9 mph N/A   Overcast
10:14 PM 52.2 °F 50.5 °F 94% 29.71 in 5.0 mi WNW 13.8 mph 18.4 mph N/A   Light Drizzle
10:34 PM 52.3 °F 50.9 °F 95% 29.71 in 10.0 mi West 9.2 mph - N/A   Overcast
10:54 PM 52.5 °F 50.5 °F 93% 29.71 in 10.0 mi West 9.2 mph - N/A   Overcast
11:14 PM 52.3 °F 50.4 °F 93% 29.72 in 7.0 mi NW 17.3 mph 23.0 mph N/A Rain Light Rain
11:34 PM 50.2 °F 46.9 °F 89% 29.74 in 10.0 mi NW 16.1 mph 24.2 mph N/A   Overcast
11:54 PM 49.3 °F 45.1 °F 86% 29.74 in 10.0 mi WNW 11.5 mph 23.0 mph N/A   Overcast